Weather History for Morris, MN

Change the Weather History Date:

Friday, October 14, 2011

  Actual Average Record
Temperature  
Mean Temperature 48 °F -  
Max Temperature 53 °F 56 °F 75 °F (1996)
Min Temperature 42 °F 35 °F 23 °F (2006)
Degree Days  
Heating Degree Days 18    
Moisture  
Dew Point 40 °F    
Average Humidity 76    
Maximum Humidity 87    
Minimum Humidity 58    
Precipitation  
Precipitation 0.02 in - - ()
Sea Level Pressure  
Sea Level Pressure 29.79 in    
Wind  
Wind Speed 13 mph (NW)    
Max Wind Speed 24 mph    
Max Gust Speed 30 mph    
Visibility 10 miles    
Events Rain    
Averages and records for this station are not official NWS values.
T = Trace of Precipitation, MM = Missing Value Source: NWS Daily Summary

Daily Weather History Graph

Daily Weather History Graph

Search for Another Location

Airport:

Trip Planner

Search our weather history database for the weather conditions in past years. The results will help you decide how hot, cold, wet, or windy it might be!

Date:

Astronomy

Oct. 14, 2011 Rise Set
Actual Time 7:38 AM CDT 6:40 PM CDT
Civil Twilight 7:08 AM CDT 7:10 PM CDT
Nautical Twilight 6:34 AM CDT 7:44 PM CDT
Astronomical Twilight 5:59 AM CDT 8:18 PM CDT
Moon 7:43 PM CDT (10/14) 10:18 AM CDT (10/14)
Length of Visible Light 12h 01m
Length of Day
11h 01m
Waning Gibbous, 94% of the Moon is Illuminated
Oct 14
Waning Gibbous
Oct 19
Last Quarter
Oct 26
New
Nov 2
First Quarter
Nov 10
Full

Hourly Weather History & Observations

Time (CDT) Temp. Windchill Dew Point Humidity Pressure Visibility Wind Dir Wind Speed Gust Speed Precip Events Conditions
12:11 AM 44.6 °F 40.7 °F 41.0 °F 87% 29.70 in 10.0 mi WNW 6.9 mph - N/A   Clear
12:32 AM 44.6 °F 39.7 °F 41.0 °F 87% 29.70 in 10.0 mi WNW 9.2 mph - N/A   Clear
12:52 AM 46.4 °F 41.5 °F 42.8 °F 87% 29.70 in 10.0 mi WNW 10.4 mph - N/A   Mostly Cloudy
1:11 AM 46.4 °F 40.7 °F 42.8 °F 87% 29.70 in 10.0 mi WNW 12.7 mph - N/A   Scattered Clouds
1:32 AM 46.4 °F 40.7 °F 42.8 °F 87% 29.70 in 10.0 mi WNW 12.7 mph 17.3 mph N/A   Overcast
1:52 AM 46.4 °F 40.7 °F 42.8 °F 87% 29.71 in 10.0 mi WNW 12.7 mph - N/A   Mostly Cloudy
2:11 AM 46.4 °F 40.7 °F 42.8 °F 87% 29.71 in 10.0 mi WNW 12.7 mph 18.4 mph N/A   Scattered Clouds
2:31 AM 46.4 °F 40.4 °F 42.8 °F 87% 29.71 in 10.0 mi WNW 13.8 mph - N/A   Mostly Cloudy
2:52 AM 46.4 °F 40.4 °F 42.8 °F 87% 29.71 in 10.0 mi WNW 13.8 mph 18.4 mph N/A   Mostly Cloudy
3:11 AM 46.4 °F 39.8 °F 42.8 °F 87% 29.72 in 10.0 mi NW 16.1 mph 20.7 mph N/A   Overcast
3:31 AM 46.4 °F 39.5 °F 42.8 °F 87% 29.72 in 10.0 mi NW 17.3 mph 26.5 mph N/A   Overcast
3:51 AM 46.4 °F 39.8 °F 42.8 °F 87% 29.72 in 10.0 mi NW 16.1 mph - N/A   Overcast
4:11 AM 46.4 °F 41.1 °F 42.8 °F 87% 29.73 in 10.0 mi NNW 11.5 mph - N/A   Overcast
4:32 AM 46.4 °F 40.4 °F 42.8 °F 87% 29.73 in 10.0 mi NW 13.8 mph - N/A   Overcast
4:51 AM 46.4 °F 41.1 °F 42.8 °F 87% 29.73 in 10.0 mi NW 11.5 mph - N/A   Overcast
5:11 AM 46.4 °F 41.1 °F 41.0 °F 81% 29.73 in 10.0 mi NNW 11.5 mph 16.1 mph N/A   Overcast
5:32 AM 44.6 °F 38.8 °F 39.2 °F 81% 29.74 in 10.0 mi NNW 11.5 mph - N/A   Overcast
5:51 AM 44.6 °F 39.2 °F 39.2 °F 81% 29.74 in 10.0 mi NNW 10.4 mph - N/A   Overcast
6:11 AM 44.6 °F 38.8 °F 39.2 °F 81% 29.75 in 10.0 mi NNW 11.5 mph - N/A   Overcast
6:51 AM 44.6 °F 39.2 °F 37.4 °F 76% 29.75 in 10.0 mi NW 10.4 mph - N/A   Overcast
7:11 AM 42.8 °F 37.5 °F 37.4 °F 81% 29.76 in 10.0 mi NW 9.2 mph - N/A   Mostly Cloudy
7:32 AM 42.8 °F 37.0 °F 37.4 °F 81% 29.76 in 10.0 mi WNW 10.4 mph - N/A   Mostly Cloudy
8:12 AM 42.8 °F 37.5 °F 37.4 °F 81% 29.77 in 10.0 mi NW 9.2 mph - N/A   Scattered Clouds
8:31 AM 44.6 °F 38.4 °F 39.2 °F 81% 29.78 in 10.0 mi NW 12.7 mph - N/A   Scattered Clouds
8:52 AM 44.6 °F 39.2 °F 39.2 °F 81% 29.79 in 10.0 mi NW 10.4 mph - N/A   Mostly Cloudy
9:11 AM 46.4 °F 40.1 °F 37.4 °F 71% 29.79 in 10.0 mi NNW 15.0 mph - N/A   Mostly Cloudy
9:32 AM 46.4 °F 39.8 °F 37.4 °F 71% 29.79 in 10.0 mi NNW 16.1 mph 19.6 mph N/A   Mostly Cloudy
9:51 AM 46.4 °F 39.5 °F 37.4 °F 71% 29.79 in 10.0 mi NNW 17.3 mph 20.7 mph N/A   Mostly Cloudy
10:11 AM 46.4 °F 39.8 °F 37.4 °F 71% 29.80 in 10.0 mi NNW 16.1 mph 19.6 mph N/A   Scattered Clouds
10:32 AM 46.4 °F 39.5 °F 37.4 °F 71% 29.80 in 10.0 mi NNW 17.3 mph - N/A   Mostly Cloudy
10:51 AM 46.4 °F 39.8 °F 37.4 °F 71% 29.81 in 10.0 mi NW 16.1 mph 20.7 mph N/A   Overcast
11:12 AM 46.4 °F 39.8 °F 39.2 °F 76% 29.82 in 10.0 mi NW 16.1 mph 23.0 mph N/A   Light Drizzle
11:32 AM 46.4 °F 40.4 °F 41.0 °F 81% 29.82 in 10.0 mi NW 13.8 mph 18.4 mph N/A   Light Drizzle
11:51 AM 46.4 °F 40.4 °F 41.0 °F 81% 29.82 in 10.0 mi NW 13.8 mph - N/A Rain Light Rain
12:12 PM 48.2 °F - 39.2 °F 71% 29.83 in 10.0 mi NW 17.3 mph - N/A   Mostly Cloudy
12:32 PM 48.2 °F - 39.2 °F 71% 29.82 in 10.0 mi NW 12.7 mph - N/A   Mostly Cloudy
12:51 PM 51.8 °F - 41.0 °F 67% 29.82 in 10.0 mi WNW 15.0 mph 19.6 mph N/A   Mostly Cloudy
1:12 PM 51.8 °F - 39.2 °F 62% 29.82 in 10.0 mi NW 18.4 mph 23.0 mph N/A   Mostly Cloudy
1:32 PM 51.8 °F - 41.0 °F 67% 29.82 in 10.0 mi WNW 20.7 mph 25.3 mph N/A   Mostly Cloudy
2:11 PM 51.8 °F - 41.0 °F 67% 29.81 in 10.0 mi WNW 21.9 mph 27.6 mph N/A   Mostly Cloudy
2:32 PM 51.8 °F - 41.0 °F 67% 29.81 in 10.0 mi WNW 24.2 mph 29.9 mph N/A   Overcast
2:51 PM 51.8 °F - 41.0 °F 67% 29.81 in 10.0 mi WNW 21.9 mph 28.8 mph N/A   Mostly Cloudy
3:11 PM 53.6 °F - 42.8 °F 67% 29.81 in 10.0 mi WNW 23.0 mph 27.6 mph N/A   Mostly Cloudy
3:32 PM 53.6 °F - 41.0 °F 62% 29.81 in 10.0 mi NW 17.3 mph 25.3 mph N/A   Overcast
3:51 PM 53.6 °F - 39.2 °F 58% 29.82 in 10.0 mi WNW 21.9 mph 27.6 mph N/A   Overcast
4:11 PM 51.8 °F - 39.2 °F 62% 29.82 in 10.0 mi WNW 20.7 mph 27.6 mph N/A   Overcast
4:31 PM 51.8 °F - 41.0 °F 67% 29.82 in 10.0 mi WNW 21.9 mph 27.6 mph N/A   Overcast
4:52 PM 53.6 °F - 41.0 °F 62% 29.82 in 10.0 mi NW 20.7 mph 27.6 mph N/A   Mostly Cloudy
5:11 PM 50.0 °F - 42.8 °F 76% 29.83 in 7.0 mi WNW 21.9 mph 26.5 mph 0.02 in Rain Light Rain
5:32 PM 50.0 °F - 44.6 °F 82% 29.83 in 10.0 mi WNW 17.3 mph 24.2 mph 0.02 in   Scattered Clouds
5:51 PM 50.0 °F - 42.8 °F 76% 29.83 in 10.0 mi WNW 18.4 mph 25.3 mph 0.02 in   Clear
5:55 PM 50.0 °F - 42.8 °F 76% 29.84 in 10.0 mi WNW 17.3 mph 23.0 mph 0.02 in   Clear
6:11 PM 50.0 °F - 41.0 °F 71% 29.84 in 10.0 mi WNW 18.4 mph - N/A   Clear
6:32 PM 48.2 °F - 41.0 °F 76% 29.85 in 10.0 mi WNW 16.1 mph 21.9 mph N/A   Clear
6:51 PM 48.2 °F - 41.0 °F 76% 29.85 in 10.0 mi NW 15.0 mph - N/A   Scattered Clouds
7:12 PM 48.2 °F - 39.2 °F 71% 29.86 in 10.0 mi NW 15.0 mph 21.9 mph N/A   Scattered Clouds
7:31 PM 48.2 °F - 39.2 °F 71% 29.87 in 10.0 mi NW 12.7 mph 18.4 mph N/A   Mostly Cloudy
7:52 PM 46.4 °F 41.1 °F 37.4 °F 71% 29.87 in 10.0 mi NW 11.5 mph - N/A   Mostly Cloudy
8:11 PM 48.2 °F - 37.4 °F 66% 29.87 in 10.0 mi NW 12.7 mph - N/A   Overcast
8:31 PM 46.4 °F 40.7 °F 37.4 °F 71% 29.87 in 10.0 mi NW 12.7 mph - N/A   Mostly Cloudy
8:52 PM 46.4 °F 40.7 °F 37.4 °F 71% 29.87 in 10.0 mi WNW 12.7 mph - N/A   Scattered Clouds
9:11 PM 44.6 °F 38.4 °F 35.6 °F 71% 29.87 in 10.0 mi West 12.7 mph - N/A   Clear
9:32 PM 44.6 °F 37.8 °F 35.6 °F 71% 29.87 in 10.0 mi West 15.0 mph - N/A   Clear
9:51 PM 44.6 °F 37.8 °F 35.6 °F 71% 29.87 in 10.0 mi West 15.0 mph - N/A   Clear
10:12 PM 44.6 °F 38.4 °F 35.6 °F 71% 29.87 in 10.0 mi West 12.7 mph - N/A   Clear
10:31 PM 42.8 °F 35.8 °F 37.4 °F 81% 29.87 in 10.0 mi West 13.8 mph - N/A   Clear
10:51 PM 44.6 °F 37.2 °F 35.6 °F 71% 29.87 in 10.0 mi WNW 17.3 mph - N/A   Clear
11:11 PM 44.6 °F 37.8 °F 35.6 °F 71% 29.87 in 10.0 mi WNW 15.0 mph - N/A   Clear
11:32 PM 42.8 °F 35.4 °F 35.6 °F 76% 29.87 in 10.0 mi WNW 15.0 mph - N/A   Clear
11:51 PM 42.8 °F 35.4 °F 35.6 °F 76% 29.87 in 10.0 mi WNW 15.0 mph - N/A   Clear